Volver al catálogo

FENGYUN 1C DEB

ActivoSSO
NORAD 31274·DEBRIS·🇨🇳 China

Lanzado May 10, 1999 desde Taiyuan Satellite Launch Center

Loading…

Próximos Pases (próximas 24 horas)

TLE

ActualizadoSource: Space-Track

Época: Sep 12, 2026, 22:58 UTC

1 31274U 99025BNG 26255.95701681  .00000479  00000-0  35912-3 0  9992
2 31274  99.0221  70.2454 0240396  89.4116 273.4579 13.86135213980059

Sigue FENGYUN 1C DEB en tiempo real con AllMySat

Download on the App Store